PBD9654 USDD-UUWW

Flight info

Callsign PBD9654
Flight time N/A
Altitude 34000
Route SUTOT1M SUTOT T816 UHT T791 GONIB T187 NAZOL T791 KTL T187 ROMTA ROMTA3B
Aircraft B738/M-SDE2E3FGHIRWXY/LB1

Departure

Time 2026-04-16 16:39
Airport Salekhard Airport (USDD)

Arrival

Time N/A
Airport Vnukovo International Airport (UUWW)
Time Latitude Longitude Altitude Speed Heading
2026-04-16 16:39 66.56831 66.31937 9004 ft 267 kts 237°
2026-04-16 16:39 66.55944 66.27884 9794 ft 269 kts 237°
2026-04-16 16:39 66.55042 66.23764 10578 ft 270 kts 237°
2026-04-16 16:40 66.54122 66.19585 11074 ft 282 kts 237°
2026-04-16 16:40 66.53136 66.15121 11342 ft 302 kts 237°
2026-04-16 16:40 66.52088 66.10377 11561 ft 321 kts 238°
2026-04-16 16:40 66.50988 66.05383 12041 ft 330 kts 238°
2026-04-16 16:41 66.49885 66.00369 12870 ft 328 kts 238°
2026-04-16 16:41 66.48792 65.95410 13689 ft 325 kts 238°
2026-04-16 16:41 66.47687 65.90430 14256 ft 330 kts 238°
2026-04-16 16:41 66.46560 65.85368 14742 ft 337 kts 238°
2026-04-16 16:42 66.45418 65.80241 15419 ft 338 kts 238°
2026-04-16 16:42 66.44273 65.75106 16025 ft 340 kts 238°
2026-04-16 16:42 66.43109 65.69907 16550 ft 345 kts 238°
2026-04-16 16:42 66.41954 65.64758 17132 ft 347 kts 238°
2026-04-16 16:43 66.40745 65.59443 17670 ft 350 kts 238°
2026-04-16 16:43 66.39638 65.54039 18198 ft 355 kts 242°
2026-04-16 16:43 66.38610 65.48457 18723 ft 358 kts 242°
2026-04-16 16:43 66.37570 65.42742 18727 ft 358 kts 243°
2026-04-16 16:44 66.36554 65.37161 18576 ft 348 kts 242°
2026-04-16 16:44 66.35558 65.31719 18661 ft 344 kts 241°
2026-04-16 16:44 66.34555 65.26290 18670 ft 351 kts 241°
2026-04-16 16:44 66.33536 65.20798 18644 ft 350 kts 240°
2026-04-16 16:45 66.32209 65.15854 18645 ft 341 kts 220°
2026-04-16 16:45 66.30213 65.12897 18655 ft 336 kts 194°
2026-04-16 16:45 66.27904 65.11948 18672 ft 338 kts 185°
2026-04-16 16:45 66.25554 65.11731 18435 ft 342 kts 175°
2026-04-16 16:46 66.23276 65.13139 17918 ft 341 kts 154°
2026-04-16 16:46 66.21455 65.16810 17346 ft 345 kts 129°
2026-04-16 16:46 66.20261 65.21975 16851 ft 345 kts 118°
2026-04-16 16:46 66.19375 65.27489 16422 ft 343 kts 110°
2026-04-16 16:47 66.18834 65.33212 16043 ft 339 kts 103°
2026-04-16 16:47 66.18475 65.38909 15666 ft 334 kts 100°
2026-04-16 16:47 66.18216 65.44550 15292 ft 330 kts 98°
2026-04-16 16:47 66.18013 65.50193 14912 ft 326 kts 97°
2026-04-16 16:48 66.17877 65.55750 14307 ft 331 kts 91°
2026-04-16 16:48 66.18355 65.61411 13524 ft 346 kts 69°
2026-04-16 16:48 66.19665 65.66415 12729 ft 358 kts 49°
2026-04-16 16:48 66.21734 65.69974 11818 ft 370 kts 22°
2026-04-16 16:49 66.24217 65.71080 10801 ft 369 kts 359°
2026-04-16 16:49 66.26730 65.70338 9822 ft 363 kts 348°
2026-04-16 16:49 66.29157 65.68877 8811 ft 358 kts 345°
2026-04-16 16:49 66.31503 65.67214 7754 ft 354 kts 344°
2026-04-16 16:50 66.33823 65.65420 6751 ft 347 kts 343°
2026-04-16 16:50 66.36046 65.63615 6266 ft 326 kts 342°
2026-04-16 16:50 66.38148 65.61858 5786 ft 310 kts 343°
2026-04-16 16:50 66.40215 65.60983 5281 ft 294 kts
2026-04-16 16:51 66.42085 65.62340 4797 ft 279 kts 30°
2026-04-16 16:51 66.43653 65.65038 4297 ft 268 kts 46°
2026-04-16 16:51 66.44789 65.68568 3803 ft 260 kts 59°
2026-04-16 16:51 66.45605 65.72495 3302 ft 253 kts 70°
2026-04-16 16:52 66.46124 65.76659 2801 ft 248 kts 77°
2026-04-16 16:52 66.46458 65.80829 2490 ft 236 kts 81°
2026-04-16 16:52 66.46716 65.84708 2485 ft 214 kts 81°
2026-04-16 16:52 66.46944 65.88317 2514 ft 215 kts 82°
2026-04-16 16:53 66.47174 65.92058 2527 ft 214 kts 82°
2026-04-16 16:53 66.47395 65.95682 2484 ft 210 kts 82°
2026-04-16 16:53 66.47614 65.99284 2486 ft 208 kts 82°
2026-04-16 16:53 66.47834 66.02900 2277 ft 209 kts 82°
2026-04-16 16:54 66.48046 66.06406 1992 ft 200 kts 81°
2026-04-16 16:54 66.48247 66.09761 1759 ft 189 kts 81°
2026-04-16 16:54 66.48621 66.12761 1666 ft 176 kts 60°
2026-04-16 16:54 66.49213 66.15373 1724 ft 171 kts 62°
2026-04-16 16:55 66.49791 66.17879 1682 ft 161 kts 60°
2026-04-16 16:55 66.50336 66.20306 1687 ft 158 kts 62°
2026-04-16 16:55 66.50857 66.22752 1700 ft 159 kts 62°
2026-04-16 16:55 66.51376 66.25216 1685 ft 159 kts 63°
2026-04-16 16:56 66.51890 66.27666 1695 ft 159 kts 63°
2026-04-16 16:56 66.52406 66.30124 1694 ft 159 kts 63°
2026-04-16 16:56 66.52920 66.32569 1689 ft 159 kts 62°
2026-04-16 16:56 66.53429 66.34987 1684 ft 155 kts 62°
2026-04-16 16:57 66.53931 66.37373 1707 ft 153 kts 62°
2026-04-16 16:57 66.54914 66.42017 1632 ft 146 kts 62°
2026-04-16 16:57 66.55396 66.44242 1480 ft 145 kts 62°
2026-04-16 16:58 66.55868 66.46429 1163 ft 140 kts 62°
2026-04-16 16:58 66.56331 66.48565 880 ft 140 kts 61°
2026-04-16 16:58 66.56799 66.50692 613 ft 140 kts 58°
2026-04-16 16:58 66.57311 66.52827 490 ft 141 kts 61°
2026-04-16 16:59 66.57770 66.55040 457 ft 141 kts 61°
2026-04-16 16:59 66.58231 66.57179 304 ft 139 kts 62°
2026-04-16 16:59 66.58675 66.59267 229 ft 128 kts 64°
2026-04-16 16:59 66.59010 66.60815 225 ft 64 kts 62°
2026-04-16 17:00 66.59145 66.61478 225 ft 30 kts 60°